Time,TemperatureF,DewpointF,PressureIn,WindDirection,WindDirectionDegrees,WindSpeedMPH,WindSpeedGustMPH,Humidity,HourlyPrecipIn,Conditions,Clouds,dailyrainin,SoftwareType,DateUTC
2013-01-05 00:00:00,23.0,17.7,30.27,SSW,210,5.0,5.0,80,0.00,CLR,CLR,0.00,WeatherDisplay:10.37,2013-01-05 06:00:00,
2013-01-05 00:15:00,21.9,17.8,30.26,SSW,210,6.0,6.0,84,0.00,CLR,CLR,0.00,WeatherDisplay:10.37,2013-01-05 06:15:00,
2013-01-05 00:45:00,21.9,17.8,30.26,SSW,210,6.0,6.0,84,0.00,CLR,CLR,0.00,WeatherDisplay:10.37,2013-01-05 06:45:00,
2013-01-05 01:15:00,21.0,17.8,30.26,South,190,3.0,6.0,87,0.00,CLR,CLR,0.00,WeatherDisplay:10.37,2013-01-05 07:15:00,
2013-01-05 01:45:00,21.0,17.8,30.26,South,190,3.0,3.0,87,0.00,CLR,CLR,0.00,WeatherDisplay:10.37,2013-01-05 07:45:00,
2013-01-05 02:15:00,21.0,17.8,30.26,South,190,0.0,3.0,87,0.00,CLR,CLR,0.00,WeatherDisplay:10.37,2013-01-05 08:15:00,
2013-01-05 02:45:00,21.0,17.8,30.26,South,190,0.0,0.0,87,0.00,CLR,CLR,0.00,WeatherDisplay:10.37,2013-01-05 08:45:00,
2013-01-05 03:15:00,21.9,17.8,30.26,South,180,3.0,3.0,84,0.00,CLR,CLR,0.00,WeatherDisplay:10.37,2013-01-05 09:15:00,
2013-01-05 03:45:00,21.9,17.8,30.26,South,180,3.0,3.0,84,0.00,CLR,CLR,0.00,WeatherDisplay:10.37,2013-01-05 09:45:00,
2013-01-05 04:15:00,19.9,15.9,30.25,South,190,5.0,5.0,84,0.00,CLR,CLR,0.00,WeatherDisplay:10.37,2013-01-05 10:15:00,
2013-01-05 04:45:00,19.9,15.9,30.25,South,190,5.0,5.0,84,0.00,CLR,CLR,0.00,WeatherDisplay:10.37,2013-01-05 10:45:00,
2013-01-05 05:15:00,19.9,17.0,30.23,South,180,3.0,5.0,88,0.00,CLR,CLR,0.00,WeatherDisplay:10.37,2013-01-05 11:15:00,
2013-01-05 05:45:00,19.9,17.0,30.23,South,180,3.0,3.0,88,0.00,CLR,CLR,0.00,WeatherDisplay:10.37,2013-01-05 11:45:00,
2013-01-05 06:15:00,19.9,15.9,30.23,South,190,3.0,3.0,84,0.00,CLR,CLR,0.00,WeatherDisplay:10.37,2013-01-05 12:15:00,
2013-01-05 06:45:00,19.9,15.9,30.23,South,190,3.0,3.0,84,0.00,CLR,CLR,0.00,WeatherDisplay:10.37,2013-01-05 12:45:00,
2013-01-05 07:15:00,21.0,16.9,30.22,South,190,6.0,6.0,84,0.00,CLR,CLR,0.00,WeatherDisplay:10.37,2013-01-05 13:15:00,
2013-01-05 07:45:00,21.0,16.9,30.22,South,190,6.0,6.0,84,0.00,CLR,CLR,0.00,WeatherDisplay:10.37,2013-01-05 13:45:00,
2013-01-05 08:15:00,21.0,17.8,30.22,South,190,7.0,7.0,87,0.00,CLR,CLR,0.00,WeatherDisplay:10.37,2013-01-05 14:15:00,
2013-01-05 08:45:00,21.0,17.8,30.22,South,190,7.0,7.0,87,0.00,CLR,CLR,0.00,WeatherDisplay:10.37,2013-01-05 14:45:00,
2013-01-05 09:15:00,24.1,19.7,30.23,SSW,210,7.0,7.0,83,0.00,CLR,CLR,0.00,WeatherDisplay:10.37,2013-01-05 15:15:00,
2013-01-05 09:45:00,24.1,19.7,30.23,SSW,210,7.0,7.0,83,0.00,CLR,CLR,0.00,WeatherDisplay:10.37,2013-01-05 15:45:00,
2013-01-05 10:15:00,28.0,23.0,30.23,SSW,210,10.0,10.0,81,0.00,CLR,CLR,0.00,WeatherDisplay:10.37,2013-01-05 16:15:00,
2013-01-05 10:45:00,28.0,23.0,30.23,SSW,210,10.0,10.0,81,0.00,CLR,CLR,0.00,WeatherDisplay:10.37,2013-01-05 16:45:00,
2013-01-05 11:15:00,30.9,23.9,30.22,SW,220,12.0,12.0,75,0.00,FEW,FEW,0.00,WeatherDisplay:10.37,2013-01-05 17:15:00,
2013-01-05 11:45:00,30.9,23.9,30.22,SW,220,12.0,12.0,75,0.00,FEW,FEW,0.00,WeatherDisplay:10.37,2013-01-05 17:45:00,
2013-01-05 12:15:00,32.0,24.6,30.18,SSW,210,10.0,12.0,74,0.00,-SN,-SN,0.00,WeatherDisplay:10.37,2013-01-05 18:15:00,
2013-01-05 12:45:00,32.0,28.3,30.17,SW,230,7.0,9.0,86,0.00,-SN,-SN,0.00,WeatherDisplay:10.37,2013-01-05 18:45:00,
2013-01-05 13:15:00,33.1,29.9,30.14,SSW,210,6.0,7.0,88,0.00,OVC,OVC,0.00,WeatherDisplay:10.37,2013-01-05 19:15:00,
2013-01-05 13:45:00,33.1,29.9,30.14,SSW,210,6.0,6.0,88,0.00,OVC,OVC,0.00,WeatherDisplay:10.37,2013-01-05 19:45:00,
2013-01-05 14:15:00,34.0,28.8,30.10,South,170,8.0,8.0,81,0.00,OVC,OVC,0.00,WeatherDisplay:10.37,2013-01-05 20:15:00,
2013-01-05 14:45:00,34.0,28.8,30.10,South,170,8.0,8.0,81,0.00,OVC,OVC,0.00,WeatherDisplay:10.37,2013-01-05 20:45:00,
2013-01-05 15:15:00,36.0,29.8,30.09,South,190,10.0,10.0,78,0.00,OVC,OVC,0.00,WeatherDisplay:10.37,2013-01-05 21:15:00,
2013-01-05 15:45:00,36.0,29.8,30.09,South,190,10.0,10.0,78,0.00,OVC,OVC,0.00,WeatherDisplay:10.37,2013-01-05 21:45:00,
2013-01-05 16:15:00,35.1,29.8,30.07,South,190,15.0,15.0,81,0.00,OVC,OVC,0.00,WeatherDisplay:10.37,2013-01-05 22:15:00,
2013-01-05 16:45:00,35.6,30.0,30.07,SSW,200,14.0,15.0,80,0.00,OVC,OVC,0.00,WeatherDisplay:10.37,2013-01-05 22:45:00,
2013-01-05 17:15:00,35.1,29.8,30.07,SSW,210,14.0,14.0,81,0.00,OVC,OVC,0.00,WeatherDisplay:10.37,2013-01-05 23:15:00,
2013-01-05 18:15:00,34.0,31.9,30.07,SW,220,16.0,28.0,92,0.00,-SN,-SN,0.00,WeatherDisplay:10.37,2013-01-06 00:15:00,
2013-01-05 18:45:00,34.0,31.9,30.07,SW,220,16.0,28.0,92,0.00,-SN,-SN,0.00,WeatherDisplay:10.37,2013-01-06 00:45:00,
2013-01-05 19:15:00,34.0,31.9,30.08,SW,220,14.0,28.0,92,0.00,OVC,OVC,0.00,WeatherDisplay:10.37,2013-01-06 01:15:00,
2013-01-05 19:45:00,34.0,31.9,30.08,SW,220,14.0,14.0,92,0.00,OVC,OVC,0.00,WeatherDisplay:10.37,2013-01-06 01:45:00,
2013-01-05 20:15:00,34.0,31.9,30.07,SW,220,13.0,15.0,92,0.00,OVC,OVC,0.00,WeatherDisplay:10.37,2013-01-06 02:15:00,
2013-01-05 20:45:00,34.0,31.9,30.07,SW,220,13.0,13.0,92,0.00,OVC,OVC,0.00,WeatherDisplay:10.37,2013-01-06 02:45:00,
2013-01-05 21:15:00,35.1,31.9,30.06,SW,220,13.0,14.0,88,0.00,OVC,OVC,0.00,WeatherDisplay:10.37,2013-01-06 03:15:00,
2013-01-05 21:45:00,35.1,31.9,30.06,SW,220,13.0,13.0,88,0.00,OVC,OVC,0.00,WeatherDisplay:10.37,2013-01-06 03:45:00,
2013-01-05 22:15:00,35.1,31.9,30.03,SW,230,12.0,13.0,88,0.00,OVC,OVC,0.00,WeatherDisplay:10.37,2013-01-06 04:15:00,
2013-01-05 22:45:00,35.1,31.9,30.03,SW,230,12.0,12.0,88,0.00,OVC,OVC,0.00,WeatherDisplay:10.37,2013-01-06 04:45:00,
2013-01-05 23:15:00,35.1,31.9,30.02,SW,220,13.0,13.0,88,0.00,OVC,OVC,0.00,WeatherDisplay:10.37,2013-01-06 05:15:00,
2013-01-05 23:45:00,35.1,31.9,30.02,SW,220,13.0,13.0,88,0.00,OVC,OVC,0.00,WeatherDisplay:10.37,2013-01-06 05:45:00,